Tracking 28790 objects as of 19-Apr-2024
HD Live streaming from Space Station
objects crossing your sky now

PEGASUS DEB

Track PEGASUS DEB now!
10-day predictions


NORAD ID: 25442
Int'l Code: 1994-029ADX
Perigee: 567.6 km
Apogee: 921.3 km
Inclination: 81.8 °
Period: 99.6 minutes
Semi major axis: 7115 km
RCS: 0.0116 m2 (small)
Launch date: May 19, 1994
Source: United States (US)
Launch site: AIR FORCE WESTERN TEST RANGE (AFWTR)

Note: This is SATELLITE DEBRIS
Your satellite tracking list
Your tracking list is empty




NASA's NSSDC Master Catalog

Two Line Element Set (TLE):
1 25442U 94029ADX 24105.49503229  .00004745  00000-0  89324-3 0  9996
2 25442  81.7653  25.5544 0248576 204.7288 154.1828 14.46434201437021
Source of the keplerian elements: AFSPC